Station SHXA2 - Sitka Harbor, AK Image indicating link to RSS feed of recent meteorological observations for station SHXA2


Conditions at SHXA2 as of
(1:22 am AKDT)
0922 GMT on 07/23/2024:
     

Click on the graph icon in the table below to see a time series plot of the last five days of that observation.

5-day plot - Wind Direction Wind Direction (WDIR):ESE ( 110 deg true )
5-day plot - Wind Speed Wind Speed (WSPD): 1 kts
5-day plot - Wind Gust Wind Gust (GST): 2 kts
5-day plot - Air Temperature Air Temperature (ATMP): 55.8 °F
5-day plot - Dew Point Dew Point (DEWP): 54.1 °F
5-day plot - Wind Speed at 10 Meters Wind Speed at 10 meters (WSPD10M): 2 kts
5-day plot - Wind Speed at 20 Meters Wind Speed at 20 meters (WSPD20M): 2 kts
5-day plot -  Wind Speed, Wind Gust and Atmospheric Pressure Combined plot of Wind Speed, Gust, and Air Pressure
Previous observations
TIME
(AKDT)
5-day plot - Wind Direction
WDIR
 
5-day plot - Wind Speed
WSPD
kts
5-day plot - Wind Gust
GST
kts
5-day plot - Wave Height
WVHT
ft
5-day plot - Dominant Wave Period
DPD
sec
5-day plot - Average Wave Period
APD
sec
5-day plot - Mean Wave Direction
MWD
 
5-day plot - Atmospheric Pressure
PRES
in
5-day plot - Pressure Tendency
PTDY
in
5-day plot - Air Temperature
ATMP
°F
5-day plot - Water Temperature
WTMP
°F
5-day plot - Dew Point
DEWP
°F
5-day plot - Salinity
SAL
psu
5-day plot - Visibility
VIS
nmi
5-day plot - Tide (above MLLW)
TIDE
ft
2024-07-23 01:03 am E 3 4------ 55.6- 54.0---
2024-07-23 12:52 amENE 2 3------ 55.9- 54.0---
2024-07-23 12:42 am- 0 2------ 56.1- 54.1---
2024-07-23 12:32 am E 2 3------ 55.9- 54.0---
2024-07-23 12:22 am E 2 3------ 55.9- 54.1---
2024-07-23 12:13 am E 2 3------ 55.9- 54.3---
2024-07-23 12:03 am E 3 4------ 55.9- 54.1---
2024-07-22 11:53 pm E 2 3------ 56.1- 54.1---
2024-07-22 11:42 pm E 2 3------ 56.3- 54.1---
2024-07-22 11:33 pm- 0 1------ 56.5- 54.1---
2024-07-22 11:22 pm E 1 2------ 56.3- 54.1---
2024-07-22 11:12 pm E 2 3------ 56.1- 54.1---
2024-07-22 11:02 pm E 2 3------ 56.3- 54.1---
2024-07-22 10:52 pmENE 2 2------ 56.7- 54.3---
2024-07-22 10:42 pm- 0 2------ 56.7- 54.3---
2024-07-22 10:32 pmENE 2 3------ 56.5- 54.1---
2024-07-22 10:22 pm NE 2 3------ 57.0- 54.5---
2024-07-22 10:03 pmNNE 1 2------ 57.0- 54.1---
2024-07-22 10:02 pmNNE 1 2------ 57.0- 54.1---
2024-07-22 09:42 pmNNE 1 2------ 57.2- 54.3---
2024-07-22 09:33 pm N 1 2------ 57.2- 54.3---
2024-07-22 09:23 pm NE 2 3------ 57.4- 54.3---
2024-07-22 09:13 pm N 1 3------ 57.6- 54.3---
2024-07-22 09:02 pm NW 1 2------ 57.4- 54.1---
2024-07-22 08:52 pm NW 1 2------ 57.4- 54.0---
2024-07-22 08:42 pm N 2 3------ 57.6- 54.0---
2024-07-22 08:33 pm NW 2 3------ 57.4- 53.6---
2024-07-22 08:23 pm NW 2 4------ 57.4- 53.6---
2024-07-22 08:13 pmNNW 3 4------ 57.4- 53.6---
2024-07-22 07:52 pmNNW 2 3------ 57.7- 54.1---
2024-07-22 07:42 pm NW 2 2------ 57.6- 53.6---
2024-07-22 07:33 pmNNE 2 3------ 57.7- 53.6---
2024-07-22 07:22 pm N 2 3------ 57.6- 53.8---
2024-07-22 07:12 pmNNW 3 5------ 57.6- 53.8---
2024-07-22 07:03 pm N 3 5------ 57.6- 53.8---
2024-07-22 06:52 pmNNW 3 4------ 57.6- 53.8---
2024-07-22 06:42 pmNNW 3 4------ 57.6- 53.6---
2024-07-22 06:32 pmNNW 3 4------ 57.6- 53.8---
2024-07-22 06:22 pmNNW 3 4------ 57.6- 54.0---
2024-07-22 06:13 pmNNW 2 4------ 57.7- 54.1---
2024-07-22 06:03 pm N 1 2------ 57.6- 54.0---
2024-07-22 05:53 pm N 2 4------ 57.4- 53.8---
2024-07-22 05:43 pmNNE 2 3------ 57.4- 54.0---
2024-07-22 05:32 pm N 2 3------ 57.2- 54.0---
2024-07-22 05:22 pm NE 1 3------ 57.2- 54.3---
2024-07-22 05:13 pm- 0 2------ 57.0- 54.1---
2024-07-22 05:02 pmNNW 2 3------ 56.8- 54.0---
2024-07-22 04:52 pm N 2 4------ 57.0- 54.1---
2024-07-22 04:42 pmNNE 2 3------ 57.2- 54.7---
2024-07-22 04:32 pmNNE 2 3------ 57.2- 54.3---
2024-07-22 04:23 pmNNE 2 3------ 57.6- 54.3---
2024-07-22 04:12 pmNNE 3 4------ 58.1- 54.5---
2024-07-22 03:52 pm NW 3 5------ 58.1- 54.3---
2024-07-22 03:32 pm NW 4 6------ 58.1- 54.3---
2024-07-22 03:23 pmWNW 4 7------ 58.3- 54.3---
2024-07-22 03:13 pmNNW 3 6------ 58.3- 54.1---
2024-07-22 03:02 pmNNW 3 4------ 58.5- 53.8---
2024-07-22 02:53 pmNNW 3 5------ 58.5- 54.0---
2024-07-22 02:42 pmNNW 3 5------ 58.5- 54.1---
2024-07-22 02:33 pmNNW 3 5------ 58.3- 54.1---
2024-07-22 02:23 pmNNW 3 5------ 58.5- 54.3---
2024-07-22 02:12 pm NW 4 6------ 58.5- 54.3---
2024-07-22 02:02 pmNNW 3 4------ 58.8- 54.5---
2024-07-22 01:52 pmNNW 2 4------ 58.8- 54.3---
2024-07-22 01:43 pmNNW 2 4------ 58.6- 54.3---
2024-07-22 01:33 pm NW 3 5------ 58.3- 54.1---
2024-07-22 01:23 pm NW 3 5------ 58.6- 54.5---
2024-07-22 01:12 pm W 3 5------ 58.5- 54.3---
2024-07-22 01:02 pmWNW 3 6------ 58.5- 54.3---
2024-07-22 12:53 pmNNW 3 5------ 58.8- 54.5---
2024-07-22 12:43 pmNNW 3 4------ 59.2- 54.5---
2024-07-22 12:32 pm NW 3 6------ 59.0- 54.3---
2024-07-22 12:23 pmWNW 3 5------ 58.8- 54.1---
2024-07-22 12:12 pmWNW 4 6------ 58.6- 54.1---
2024-07-22 12:03 pm NW 4 6------ 58.6- 54.1---
2024-07-22 11:53 amWNW 5 7------ 58.3- 53.8---
2024-07-22 11:43 am W 5 9------ 58.5- 53.6---
2024-07-22 11:33 am W 5 8------ 58.6- 53.2---
2024-07-22 11:23 amWNW 5 8------ 58.5- 53.2---
2024-07-22 11:13 amWNW 5 7------ 58.3- 53.6---
2024-07-22 11:03 amWNW 5 8------ 57.9- 54.0---
2024-07-22 10:53 amWNW 5 7------ 57.9- 54.0---
2024-07-22 10:32 am NW 5 8------ 57.9- 54.3---
2024-07-22 10:23 am NW 5 6------ 58.1- 54.3---
2024-07-22 10:12 am NW 4 6------ 58.3- 54.1---
2024-07-22 10:02 amNNW 3 5------ 58.5- 54.1---
2024-07-22 09:52 am NW 4 5------ 58.1- 54.0---
2024-07-22 09:42 amNNW 3 3------ 58.3- 54.5---
2024-07-22 09:33 am NW 3 3------ 57.7- 54.1---
2024-07-22 09:22 am NW 3 4------ 57.7- 54.1---
2024-07-22 09:13 am NW 2 3------ 57.7- 54.0---
2024-07-22 09:03 am NW 2 3------ 57.4- 53.8---
2024-07-22 08:53 amWNW 2 3------ 57.7- 54.0---
2024-07-22 08:43 am NW 1 3------ 57.7- 54.1---
2024-07-22 08:33 amSSW 1 2------ 57.2- 54.0---
2024-07-22 08:23 am S 2 3------ 56.8- 53.8---
2024-07-22 08:13 am S 2 3------ 56.8- 53.6---
2024-07-22 08:02 am S 2 3------ 56.5- 53.6---
2024-07-22 07:52 am S 3 4------ 56.3- 53.8---
2024-07-22 07:43 am E 2 3------ 56.5- 54.0---
2024-07-22 07:32 amENE 2 3------ 56.1- 53.6---
2024-07-22 07:22 am SE 1 3------ 55.9- 53.6---
2024-07-22 07:12 am SE 2 4------ 55.8- 53.6---
2024-07-22 07:02 amSSE 2 4------ 55.8- 53.8---
2024-07-22 06:52 am E 2 3------ 55.4- 53.4---
2024-07-22 06:42 am E 2 3------ 55.2- 53.2---
2024-07-22 06:33 am E 2 3------ 55.0- 53.1---
2024-07-22 06:23 amESE 2 3------ 54.9- 52.9---
2024-07-22 06:12 am E 2 3------ 54.9- 53.2---
2024-07-22 06:03 am S 2 3------ 54.7- 53.1---
2024-07-22 05:53 am- 0 2------ 54.7- 53.1---
2024-07-22 05:43 am- 0 1------ 54.5- 52.9---
2024-07-22 05:33 am E 1 2------ 54.1- 52.5---
2024-07-22 05:22 am E 2 3------ 54.1- 52.5---
2024-07-22 05:12 am E 2 3------ 54.0- 52.3---
2024-07-22 05:02 am E 2 2------ 54.1- 52.5---
2024-07-22 04:52 am E 1 2------ 54.1- 52.5---
2024-07-22 04:42 am- 0 1------ 54.1- 52.5---
2024-07-22 04:32 am E 2 4------ 54.0- 52.3---
2024-07-22 04:22 am E 2 4------ 54.1- 52.5---
2024-07-22 04:12 am E 1 2------ 54.5- 52.9---
2024-07-22 04:02 am E 2 3------ 54.7- 53.1---
2024-07-22 03:52 am E 3 4------ 55.0- 53.2---
2024-07-22 03:42 am E 2 3------ 55.4- 53.4---
2024-07-22 03:33 am E 2 3------ 55.6- 53.6---
2024-07-22 03:12 amWSW 1 2------ 55.6- 54.0---
2024-07-22 03:03 am- 0 1------ 55.4- 53.8---
2024-07-22 02:52 am E 1 2------ 55.0- 53.4---
2024-07-22 02:42 am E 2 3------ 55.0- 53.4---
2024-07-22 02:33 amENE 1 3------ 55.2- 53.6---
2024-07-22 02:22 am SE 1 3------ 55.0- 53.4---
2024-07-22 02:12 am E 1 2------ 54.9- 53.2---
2024-07-22 02:02 am NE 2 3------ 55.0- 53.1---
2024-07-22 01:52 am E 2 3------ 55.6- 53.2---
2024-07-22 01:43 amESE 1 2------ 55.8- 53.4---
2024-07-22 01:33 amSSE 2 4------ 55.8- 53.6---
2024-07-22 01:12 amENE 2 3------ 55.9- 53.6---
2024-07-22 01:03 amENE 1 2------ 55.9- 53.6---
2024-07-22 12:52 am E 2 4------ 55.9- 53.6---